Flag for Canada Weather past 2 weeks in Yorkton, Saskatchewan, Canada

Now
64 °F

Clear.


Feels Like: 64 °F
Forecast: 53 / 79 °F
Wind: 7 mph from South

Location: Yorkton

Current Time: May 22, 2015 at 10:58:00 PM

Latest Report: May 22, 2015 at 10:00 PM


Visibility: 9 mi

Pressure: 30.05 "Hg

Humidity: 34%

Dew point: 36 °F

Location of YorktonLocation

Historic Weather in Yorkton — Graph

°F

Yorkton temperature yesterday

Maximum temperature yesterday: 75 °F (at 2:00 PM)
Minimum temperature yesterday: 46 °F (at 2:00 AM)
Average temperature yesterday: 62 °F

Past Weeks' High & Low Weather Summary

 TemperatureHumidityPressure
High79 °F (May 22, 2:00 PM)93% (May 9, 2:00 AM)30.54 "Hg (May 9, 2:00 AM)
Low27 °F (May 18, 5:00 AM)15% (May 19, 4:00 PM)29.83 "Hg (May 16, 3:00 PM)
Average49 °F54%30.21 "Hg
* Reported May 7 10:00 PM — May 22 10:00 PM, Yorkton, Weather by CustomWeather, © 2015

Note: Actual official high and low records may vary slightly from our data, if they occured in-between our weather recording intervals... More about our weather records

Advertising

Yorkton weather history for previous 24 hours

 ConditionsComfort  
Time TempWeatherWind HumidityBarometerVisibility
10:00 PM
Fri, May 22
64 °FClear.7 mph34%30.05 "Hg9 mi
9:00 PM66 °FClear.7 mph32%30.04 "Hg7 mi
8:00 PM72 °FSunny.6 mph27%30.04 "Hg7 mi
7:00 PM75 °FSunny.10 mph19%30.05 "Hg9 mi
6:00 PM77 °FSunny.9 mph17%30.06 "Hg9 mi
5:00 PM77 °FSunny.7 mph17%30.06 "Hg9 mi
4:00 PM79 °FSunny.12 mph15%30.07 "Hg9 mi
3:00 PM79 °FPartly sunny.8 mph16%30.07 "Hg9 mi
2:00 PM79 °FPassing clouds.10 mph15%30.07 "Hg9 mi
1:00 PM75 °FPartly sunny.10 mph16%30.08 "Hg9 mi
12:00 PM77 °FScattered clouds.10 mph18%30.09 "Hg9 mi
11:00 AM75 °FSunny.9 mph16%30.09 "Hg9 mi
10:00 AM75 °FPassing clouds.13 mph18%30.10 "Hg9 mi
9:00 AM70 °FPassing clouds.10 mph31%30.11 "Hg9 mi
8:00 AM63 °FSunny.10 mph45%30.13 "Hg9 mi
7:00 AM54 °FSunny.2 mph67%30.13 "Hg9 mi
6:00 AM46 °FSunny.2 mph82%30.13 "Hg9 mi
5:00 AM45 °FSunny.2 mph76%30.12 "Hg9 mi
4:00 AM50 °FClear.7 mph67%30.11 "Hg9 mi
3:00 AM54 °FClear.9 mph54%30.10 "Hg9 mi
2:00 AM59 °FClear.9 mph42%30.10 "Hg9 mi
1:00 AM59 °FClear.9 mph39%30.09 "Hg9 mi
12:00 AM59 °FClear.9 mph45%30.09 "Hg9 mi
11:00 PM
Thu, May 21
61 °FClear.8 mph36%30.08 "Hg9 mi
10:00 PM63 °FClear.8 mph34%30.08 "Hg9 mi
Weather by CustomWeather, © 2015

See weather overviewHow to use our weather pages